Regional Weather Roundup
Issued by NWS

Home | Current Version | Previous Version | Text Only | Print | Product List | Glossary Off
Versions: 1 2 3 4 5 6 7 8 9 10 11 12 13 14 15 16 17 18 19 20 21 22 23 24 25 26 27 28 29 30 31 32 33 34 35 36 37 38 39 40 41 42 43 44 45 46 47 48 49 50

000
ASUS43 KDMX 270701
RWRIA

WEATHER ROUNDUP FOR IOWA
NATIONAL WEATHER SERVICE DES MOINES IA
200 AM CDT TUE JUN 27 2017

NOTE: "FAIR" INDICATES FEW OR NO CLOUDS BELOW 12,000 FEET WITH NO
SIGNIFICANT WEATHER AND/OR OBSTRUCTIONS TO VISIBILITY.

* - THESE STATIONS ARE NOT NWS STATIONS...THUS NOT UNDER NWS
QUALITY CONTROL.  THEY ALSO DO NOT REPORT WEATHER SUCH
AS PRECIPITATION OR FOG.

IAZ001>003-012>014-020>022-031>034-043>046-270800-
   NORTHWEST IOWA

CITY           SKY/WX    TMP DP  RH WIND       PRES   REMARKS
CARROLL *      CLEAR     46  46 100 CALM      30.15S
CHEROKEE *     CLEAR     48  44  88 CALM      30.15S
DENISON *      CLEAR     48  46  93 CALM      30.16F
LE MARS *      CLEAR     45  43  93 CALM      30.15S
ORANGE CITY *  CLEAR     55  43  62 CALM      30.14F
SHELDON *      CLEAR     48  45  87 E3        30.13S
SIOUX CITY     CLEAR     50  46  86 E5        30.14F
SPENCER        CLEAR     48  45  89 CALM      30.15S
STORM LAKE *   CLEAR     55  41  58 SE6       30.15F
$$

IAZ055>058-069>071-079>083-090>094-270800-
   SOUTHWEST IOWA

CITY           SKY/WX    TMP DP  RH WIND       PRES   REMARKS
ATLANTIC *     CLEAR     50  48  93 CALM      30.15S
AUDUBON *      CLEAR     46  45  93 CALM      30.16F
CLARINDA *       N/A     54  54 100 CALM      30.17S FOG
COUNCIL BLFS * CLEAR     57  50  77 E6        30.14F
CRESTON *      CLEAR     54  46  76 CALM      30.17S
HARLAN  *      CLEAR     48  46  93 CALM      30.18F
LAMONI         CLEAR     58  49  72 CALM      30.15F
RED OAK *      CLEAR     52  50  93 CALM      30.15S
SHENANDOAH *   CLEAR     57  55  94 CALM      30.15S
$$

IAZ047>049-059>061-072>074-084-270800-
   CENTRAL IOWA

CITY           SKY/WX    TMP DP  RH WIND       PRES   REMARKS
AMES           CLEAR     49  48  97 CALM      30.15S
ANKENY *       CLEAR     48  46  93 CALM      30.16S
BOONE *        CLEAR     52  45  76 CALM      30.14S
CHARITON *     CLEAR     55  46  71 CALM      30.15S
DES MOINES     CLEAR     57  45  64 SE3       30.15S
GRINNELL*      CLEAR     55  43  65 CALM      30.16S
KNOXVILLE *    CLEAR     57  43  58 CALM      30.14S
MARSHALLTOWN   CLEAR     49  46  90 W3        30.14S
NEWTON *       CLEAR     52  45  76 CALM      30.15S
PELLA *        CLEAR     53  45  72 CALM      30.16S
PERRY *          N/A     49  48  95 CALM      30.15F
$$

IAZ004>006-015-016-023>025-035-036-270800-
   NORTH CENTRAL IOWA

CITY           SKY/WX    TMP DP  RH WIND       PRES   REMARKS
ALGONA *       CLEAR     52  45  76 S5        30.14F
CLARION *        N/A     50  46  87 S3        30.15S
ESTHERVILLE    CLEAR     48  46  93 SW6       30.14S
FORT DODGE *   CLEAR     48  43  81 CALM      30.16S
MASON CITY     CLEAR     48  44  86 CALM      30.15F
FOREST CITY *    N/A     45  30  57 CALM      30.14F
WEBSTER CITY * CLEAR     48  45  87 CALM      30.13S
IOWA FALLS *     N/A     50  44  81 CALM      30.16S
$$

IAZ007>011-017>019-026>030-037>042-050>054-066-270800-
   NORTHEAST IOWA

CITY           SKY/WX    TMP DP  RH WIND       PRES   REMARKS
CEDAR RAPIDS   CLEAR     50  45  83 CALM      30.13F
CHARLES CITY * CLEAR     54  50  87 CALM      30.14F
CLINTON *      CLEAR     50  46  86 CALM      30.14S
DECORAH *      CLEAR     52  45  76 CALM      30.12F
DUBUQUE        CLEAR     51  45  79 CALM      30.13F
MONTICELLO *   CLEAR     48  46  93 CALM      30.13S
WATERLOO       CLEAR     50  47  89 CALM      30.13F
$$

IAZ064-065-067-068-078-270800-
   EAST CENTRAL IOWA

CITY           SKY/WX    TMP DP  RH WIND       PRES   REMARKS
DAVENPORT      PTCLDY    51  47  86 W3        30.14S
IOWA CITY      CLEAR     52  47  83 CALM      30.15S
MT. PLEASANT * CLEAR     51  49  92 CALM      30.15S
MUSCATINE *    CLEAR     52  46  82 CALM      30.14S
QUAD CITIES    PTCLDY    50  45  83 CALM      30.13F
$$

IAZ062-063-075>077-085>089-095>099-270800-
   SOUTHEAST IOWA

CITY           SKY/WX    TMP DP  RH WIND       PRES   REMARKS
BURLINGTON     CLEAR     51  50  96 N3        30.14S
FAIRFIELD *    CLEAR     50  45  81 CALM      30.14F
FORT MADISON * CLEAR     54  52  94 CALM      30.15S
KEOKUK *       PTCLDY    54  52  94 CALM      30.14S
OSKALOOSA *      N/A     51  45  80 CALM      30.15S
OTTUMWA        CLEAR     50  45  83 E3        30.14F
WASHINGTON *   CLEAR     50  46  87 CALM      30.16S
$$

ABBREVIATIONS USED IN REMARKS
   TC - TEMPERATURES IN CELSIUS
  WCI - WIND CHILL INDEX
   HX - HEAT INDEX
  VSB - VISIBILITY
$$





USA.gov is the U.S. government's official web portal to all federal, state and local government web resources and services.